Flag for Brazil Weather past 2 weeks in Porto Velho, Rondônia, Brazil

Now
70 °F

Passing clouds.


Feels Like: 70 °F
Forecast: 69 / 84 °F
Wind: 6 mph from Southwest

Location: Porto Velho Aeroporto

Current Time: Jul 6, 2015 at 1:31:41 AM

Latest Report: Jul 6, 2015 at 1:00 AM


Visibility: N/A

Pressure: 29.92 "Hg

Humidity: 94%

Dew point: 68 °F

Location of Porto VelhoLocation

Historic Weather in Porto Velho — Graph

°F

Porto Velho temperature yesterday

Maximum temperature yesterday: 77 °F (at 3:00 PM)
Minimum temperature yesterday: 70 °F (at 4:00 AM)
Average temperature yesterday: 72 °F

Past Weeks' High & Low Weather Summary

 TemperatureHumidityPressure
High91 °F (Jun 23, 3:00 PM)100% (Jun 23, 1:00 AM)30.07 "Hg (Jun 23, 1:00 AM)
Low66 °F (Jun 26, 6:00 AM)30% (Jun 26, 2:00 PM)29.80 "Hg (Jul 2, 5:00 PM)
Average78 °F74%29.94 "Hg
* Reported Midnight between Jun 20 and Jun 21 — Midnight between Jul 5 and Jul 6, Porto Velho, Weather by CustomWeather, © 2015

Note: Actual official high and low records may vary slightly from our data, if they occured in-between our weather recording intervals... More about our weather records

Advertising

Porto Velho weather history for previous 24 hours

 ConditionsComfort  
Time TempWeatherWind HumidityBarometerVisibility
12:00 AM
Mon, Jul 6
70 °FPassing clouds.3 mph94%29.92 "HgN/A
11:00 PM
Sun, Jul 5
70 °FPartly cloudy.3 mph94%29.92 "HgN/A
10:00 PM72 °FPartly cloudy.7 mph88%29.92 "HgN/A
9:00 PM72 °FPartly cloudy.2 mph88%29.92 "HgN/A
8:00 PM72 °FPartly cloudy.7 mph88%29.92 "HgN/A
7:00 PM72 °FPassing clouds.2 mph88%29.92 "HgN/A
6:00 PM73 °FBroken clouds.2 mph83%29.92 "HgN/A
5:00 PM73 °FBroken clouds.3 mph83%29.92 "HgN/A
4:00 PM75 °FPartly sunny.3 mph78%29.92 "HgN/A
3:00 PM77 °FBroken clouds.3 mph74%29.92 "HgN/A
2:00 PM75 °FLight rain. Broken clouds.5 mph74%29.95 "HgN/A
1:00 PM75 °FBroken clouds.6 mph74%29.98 "HgN/A
12:00 PM73 °FPartly sunny.3 mph83%30.01 "HgN/A
11:00 AM72 °FBroken clouds.No wind88%30.04 "HgN/A
10:00 AM72 °FBroken clouds.2 mph88%30.01 "HgN/A
9:00 AM70 °FBroken clouds.3 mph88%29.98 "HgN/A
8:00 AM70 °FBroken clouds.3 mph88%29.98 "HgN/A
7:00 AM70 °FBroken clouds.3 mph88%29.95 "HgN/A
6:00 AM70 °FPassing clouds.3 mph88%29.92 "HgN/A
5:00 AM70 °FPassing clouds.8 mph88%29.92 "HgN/A
4:00 AM70 °FPassing clouds.9 mph88%29.92 "HgN/A
3:00 AM72 °FPassing clouds.12 mph83%29.92 "HgN/A
2:00 AM72 °FPassing clouds.12 mph88%29.95 "HgN/A
1:00 AM73 °FPassing clouds.12 mph89%29.98 "HgN/A
Weather by CustomWeather, © 2015

See weather overviewHow to use our weather pages